Location: Bremen
(53.0793°N, 8.8017°E)
Time: 03:09:27
(UTC+01:00)

Transit 2A - Visible Passes

Search period start: 27 November 2022 00:00
Search period end: 07 December 2022 00:00
Orbit: 598 x 958 km, 66.7° (Epoch: 26 November)

Date Brightness Start Highest point End Pass type
(mag) Time Alt. Az. Time Alt. Az. Time Alt. Az.
27 Nov 6.0 17:39:17 10° NW 17:44:25 69° NE 17:50:05 10° SE visible
27 Nov 7.9 19:22:48 10° WNW 19:27:19 29° WSW 19:32:10 10° S visible
28 Nov 6.2 17:04:52 10° NW 17:09:54 54° NE 17:15:26 10° ESE visible
28 Nov 7.5 18:48:09 10° NW 18:53:00 38° WSW 18:58:18 10° S visible
29 Nov 7.0 18:13:35 10° NW 18:18:39 51° WSW 18:24:14 10° SSE visible
29 Nov 9.3 20:00:06 10° W 20:00:52 10° WSW 20:01:37 10° WSW visible
30 Nov 6.5 17:39:04 10° NW 17:44:16 68° SW 17:50:01 10° SSE visible
30 Nov 9.0 19:23:44 10° WNW 19:26:42 15° WSW 19:29:49 10° SW visible
01 Dec 6.2 17:04:36 10° NW 17:09:50 89° SW 17:15:38 10° SE visible
01 Dec 8.7 18:48:35 10° WNW 18:52:30 21° WSW 18:56:39 10° SSW visible
02 Dec 8.3 18:13:44 10° WNW 18:18:15 28° WSW 18:23:06 10° S visible
03 Dec 9.4 07:20:27 10° ESE 07:21:26 11° ESE 07:22:26 10° E visible
03 Dec 7.8 17:39:04 10° NW 17:43:57 37° WSW 17:49:15 10° S visible
04 Dec 7.3 17:04:28 10° NW 17:09:36 50° WSW 17:15:13 10° SSE visible
05 Dec 9.5 18:14:43 10° WNW 18:17:37 15° WSW 18:20:38 10° SW visible
06 Dec 8.4 07:17:06 10° SSE 07:20:37 24° ESE 07:24:20 10° ENE visible
06 Dec 9.1 17:39:32 10° WNW 17:43:25 20° WSW 17:47:32 10° SSW visible
